Regional Weather Roundup
Issued by NWS

Home | Current Version | Previous Version | Text Only | Print | Product List | Glossary Off
Versions: 1 2 3 4 5 6 7 8 9 10 11 12 13 14 15 16 17 18 19 20 21 22 23 24 25 26 27 28 29 30 31 32 33 34 35 36 37 38 39 40 41 42 43 44 45 46 47 48 49 50

000
ASUS44 KMEG 051210
RWRTN
TENNESSEE HOURLY STATE WEATHER ROUNDUP
NATIONAL WEATHER SERVICE MEMPHIS TN
700 AM CDT SUN JUL 05 2015

TNZ002-004-019-021-049-052-054-088>092-051300-
WEST TENNESSEE

CITY           SKY/WX    TMP DP  RH WIND       PRES   REMARKS
MEMPHIS INTL   MOSUNNY   70  68  93 S7        30.08R
NWS MEMPHIS      N/A     69 N/A N/A MISG        N/A
JACKSON        MOSUNNY   69  67  93 CALM      30.08R
DYERSBURG        N/A    N/A N/A N/A MISG        N/A
PARIS          CLOUDY    70  68  94 CALM      30.09R
LEXINGTON      CLOUDY    70  68  94 SW3       30.09R
$$

TNZ008-025-027-028-033-062-065-066-051300-
NORTH MIDDLE TENNESSEE

CITY           SKY/WX    TMP DP  RH WIND       PRES   REMARKS
NASHVILLE      LGT RAIN  70  70 100 W5        30.08R FOG
CLARKSVILLE    CLOUDY    70  69  97 W6        30.07R FOG
SMYRNA         CLOUDY    70  69  96 NW5       30.09R
COOKEVILLE       N/A     70  70 100 NW45G130  30.07R
CROSSVILLE     PTSUNNY   68  64  87 W5        30.09R
$$

TNZ061-075-076-078-094-096-097-051300-
SOUTH MIDDLE TENNESSEE

CITY           SKY/WX    TMP DP  RH WIND       PRES   REMARKS
FAYETTEVILLE     N/A     66  64  94 W6        30.11R
TULLAHOMA      CLOUDY    66  64  94 W9        30.11R
WINCHESTER     CLOUDY    66  64  94 VRB6      30.09R
MCMINNVILLE    CLOUDY    68  68 100 N10       30.08R
COLUMBIA       PTSUNNY   70  70 100 W7        30.08R
SHELBYVILLE    CLOUDY    70  70 100 W7          N/A
$$

TNZ017-018-042-046-047-051300-
NORTHEAST TENNESSEE

CITY           SKY/WX    TMP DP  RH WIND       PRES   REMARKS
TRI CITIES     CLOUDY    69  68  96 CALM      30.11R FOG
ELIZABETHTON   SUNNY     66  64  94 NE5       30.12S
$$

TNZ012-013-036-069-073-074-051300-
CENTRAL EAST TENNESSEE

CITY           SKY/WX    TMP DP  RH WIND       PRES   REMARKS
KNOXVILLE      CLOUDY    69  67  93 SE6       30.06R
OAK RIDGE      LGT RAIN  69  67  93 SE5       30.06F FOG
GATLINBURG     CLOUDY    68  66  94 CALM      30.07S
MORRISTOWN     PTSUNNY   68  68 100 E6        30.09S
$$

TNZ083-085-099-051300-
SOUTHEAST TENNESSEE

CITY           SKY/WX    TMP DP  RH WIND       PRES   REMARKS
CHATTANOOGA    CLOUDY    69  66  90 S6        30.08R
$$

SKY/WX REPORTED AS FAIR MEANS FEW OR NO CLOUDS BELOW
12 THOUSAND FEET.




USA.gov is the U.S. government's official web portal to all federal, state and local government web resources and services.